Location: Bern�tre
(50.1974°N, 2.0915°E)
Time: 06:07:55
(UTC+00:00)

SPOT 3 Rocket - Pass Details

Date: 18 September 2020
Orbit: 780 x 794 km, 98.7° (Epoch: 27 October)

Event Time Altitude Azimuth Distance (km) Brightness Sun altitude
Exits shadow 20:03:37 30° 161° (SSE) 1,359 4.4 -20.1°
Maximum altitude 20:06:13 87° 77° (ENE) 788 3.4 -20.4°
Drops below altitude 10° 20:11:24 10° 345° (NNW) 2,346 6.6 -21.2°
Sets 20:13:44 0° 346° (NNW) 3,280 7.4 -21.5°
